Weather History for Elizabethtown, NC

Change the Weather History Date:

Sunday, February 10, 2013

  Actual Average (KILM) Record (KILM)
Temperature  
Mean Temperature 44 °F 48 °F  
Max Temperature 59 °F 59 °F 77 °F (1965)
Min Temperature 28 °F 37 °F 10 °F (1934)
Degree Days  
Heating Degree Days 22 17  
Month to date heating degree days 175  
Since 1 July heating degree days 1650  
Cooling Degree Days 0 0  
Month to date cooling degree days 0  
Year to date cooling degree days 2  
Moisture  
Dew Point 32 °F    
Average Humidity 67    
Maximum Humidity 96    
Minimum Humidity 28    
Precipitation  
Precipitation 0.00 in 0.13 in 3.02 in (1940)
Month to date precipitation 1.27  
Year to date precipitation 5.03  
Snow  
Snow 0.00 in 0.00 in 5.70 in (1973)
Month to date snowfall 0.1  
Since 1 July snowfall 1.3  
Snow Depth -    
Sea Level Pressure  
Sea Level Pressure 30.37 in    
Wind  
Wind Speed 2 mph (ESE)    
Max Wind Speed 8 mph    
Max Gust Speed -    
Visibility 10 miles    
Events Rain    
T = Trace of Precipitation, MM = Missing Value Source: NWS Daily Summary

Daily Weather History Graph

Daily Weather History Graph

Search for Another Location

Airport:

Trip Planner

Search our weather history database for the weather conditions in past years. The results will help you decide how hot, cold, wet, or windy it might be!

Date:

Astronomy

Feb. 10, 2013 Rise Set
Actual Time 7:04 AM EST 5:53 PM EST
Civil Twilight 6:38 AM EST 6:19 PM EST
Nautical Twilight 6:08 AM EST 6:48 PM EST
Astronomical Twilight 5:39 AM EST 7:18 PM EST
Moon 6:56 AM EST (2/10) 6:37 PM EST (2/10)
Length of Visible Light 11h 40m
Length of Day
10h 48m
New Moon, 0% of the Moon is Illuminated
Feb 10
New Moon
Feb 17
First Quarter
Feb 25
Full
Mar 4
Last Quarter
Mar 11
New

Hourly Weather History & Observations

Time (EST) Temp. Windchill Dew Point Humidity Pressure Visibility Wind Dir Wind Speed Gust Speed Precip Events Conditions
12:15 AM 32.2 °F - 27.5 °F 83% 30.36 in 10.0 mi Calm Calm - N/A   Clear
12:35 AM 32.0 °F - 27.3 °F 83% 30.37 in 10.0 mi Calm Calm - N/A   Clear
12:55 AM 32.0 °F - 27.0 °F 82% 30.37 in 10.0 mi Calm Calm - N/A   Clear
1:15 AM 31.8 °F - 27.3 °F 83% 30.37 in 10.0 mi Calm Calm - N/A   Clear
1:35 AM 32.0 °F - 27.9 °F 85% 30.37 in 10.0 mi Calm Calm - N/A   Clear
1:55 AM 32.0 °F - 28.4 °F 87% 30.37 in 10.0 mi Calm Calm - N/A   Clear
2:15 AM 32.0 °F - 28.4 °F 87% 30.38 in 10.0 mi Calm Calm - N/A   Clear
2:35 AM 31.1 °F - 26.8 °F 84% 30.38 in 10.0 mi Calm Calm - N/A   Clear
2:55 AM 31.6 °F - 27.3 °F 84% 30.39 in 10.0 mi Calm Calm - N/A   Clear
3:15 AM 32.0 °F - 27.7 °F 84% 30.38 in 10.0 mi Calm Calm - N/A   Clear
3:35 AM 31.6 °F - 28.0 °F 87% 30.38 in 10.0 mi Calm Calm - N/A   Clear
3:55 AM 30.9 °F - 28.6 °F 91% 30.38 in 10.0 mi Calm Calm - N/A   Clear
4:15 AM 30.6 °F - 28.9 °F 94% 30.38 in 10.0 mi Calm Calm - N/A   Clear
4:35 AM 30.2 °F - 28.6 °F 94% 30.39 in 10.0 mi Calm Calm - N/A   Clear
4:55 AM 29.8 °F - 28.4 °F 94% 30.39 in 10.0 mi Calm Calm - N/A   Clear
5:15 AM 29.8 °F - 28.2 °F 94% 30.39 in 10.0 mi Calm Calm - N/A   Clear
5:35 AM 29.1 °F - 27.7 °F 94% 30.39 in 10.0 mi Calm Calm - N/A   Clear
5:55 AM 29.3 °F - 28.2 °F 96% 30.40 in 10.0 mi Calm Calm - N/A   Clear
6:15 AM 29.1 °F - 27.9 °F 95% 30.40 in 10.0 mi Calm Calm - N/A   Clear
6:35 AM 28.8 °F 25.0 °F 27.1 °F 94% 30.41 in 10.0 mi East 3.5 mph - N/A   Clear
6:55 AM 31.1 °F 27.7 °F 25.5 °F 80% 30.41 in 10.0 mi ENE 3.5 mph - N/A   Clear
7:15 AM 32.0 °F 28.7 °F 24.6 °F 74% 30.42 in 10.0 mi East 3.5 mph - N/A   Clear
7:35 AM 32.2 °F 28.9 °F 24.8 °F 74% 30.44 in 10.0 mi ENE 3.5 mph - N/A   Clear
7:55 AM 33.8 °F - 25.7 °F 72% 30.45 in 10.0 mi Calm Calm - N/A   Clear
8:15 AM 34.7 °F 31.8 °F 25.5 °F 69% 30.45 in 10.0 mi ENE 3.5 mph - N/A   Clear
8:35 AM 36.5 °F 32.7 °F 25.3 °F 64% 30.46 in 10.0 mi ENE 4.6 mph - N/A   Clear
8:55 AM 36.5 °F 32.7 °F 26.4 °F 67% 30.45 in 10.0 mi ENE 4.6 mph - N/A   Clear
9:15 AM 38.7 °F - 27.3 °F 64% 30.47 in 10.0 mi Calm Calm - N/A   Clear
9:35 AM 39.6 °F - 27.3 °F 62% 30.48 in 10.0 mi Calm Calm - N/A   Clear
9:55 AM 40.6 °F 38.6 °F 25.7 °F 55% 30.48 in 10.0 mi ENE 3.5 mph - N/A   Clear
10:15 AM 43.7 °F 42.1 °F 26.1 °F 50% 30.47 in 10.0 mi ENE 3.5 mph - N/A   Clear
10:35 AM 45.0 °F 43.5 °F 25.5 °F 47% 30.48 in 10.0 mi East 3.5 mph - N/A   Clear
10:55 AM 46.9 °F - 22.8 °F 39% 30.48 in 10.0 mi Calm Calm - N/A   Clear
11:15 AM 48.6 °F - 22.3 °F 36% 30.47 in 10.0 mi SE 5.8 mph - N/A   Clear
11:35 AM 49.8 °F - 21.0 °F 32% 30.47 in 10.0 mi ENE 4.6 mph - N/A   Clear
11:55 AM 51.4 °F - 20.8 °F 30% 30.46 in 10.0 mi East 5.8 mph - N/A   Clear
12:15 PM 51.6 °F - 22.3 °F 32% 30.44 in 10.0 mi East 4.6 mph - N/A   Clear
12:35 PM 54.0 °F - 21.2 °F 28% 30.45 in 10.0 mi SE 5.8 mph - N/A   Clear
12:55 PM 54.9 °F - 23.2 °F 29% 30.43 in 10.0 mi SE 3.5 mph - N/A   Clear
1:15 PM 55.6 °F - 25.3 °F 31% 30.42 in 10.0 mi Calm Calm - N/A   Clear
1:35 PM 56.3 °F - 27.0 °F 32% 30.40 in 10.0 mi SE 3.5 mph - N/A   Clear
1:55 PM 56.7 °F - 28.4 °F 34% 30.39 in 10.0 mi Calm Calm - N/A   Clear
2:15 PM 58.3 °F - 30.6 °F 35% 30.37 in 10.0 mi ESE 3.5 mph - N/A   Clear
2:35 PM 58.3 °F - 31.3 °F 36% 30.37 in 10.0 mi SE 3.5 mph - N/A   Clear
2:55 PM 58.6 °F - 31.6 °F 36% 30.36 in 10.0 mi SE 4.6 mph - N/A   Clear
3:15 PM 59.2 °F - 32.2 °F 36% 30.35 in 10.0 mi ESE 4.6 mph - N/A   Clear
3:35 PM 59.2 °F - 32.7 °F 37% 30.34 in 10.0 mi SE 8.1 mph - N/A   Clear
3:55 PM 59.2 °F - 34.0 °F 39% 30.33 in 10.0 mi ESE 5.8 mph - N/A   Clear
4:15 PM 58.8 °F - 35.4 °F 42% 30.33 in 10.0 mi ESE 3.5 mph - N/A   Scattered Clouds
4:35 PM 58.5 °F - 37.8 °F 46% 30.32 in 10.0 mi ESE 3.5 mph - N/A   Overcast
4:55 PM 58.3 °F - 39.9 °F 50% 30.33 in 10.0 mi ESE 4.6 mph - N/A   Mostly Cloudy
5:15 PM 57.6 °F - 41.0 °F 54% 30.32 in 10.0 mi ESE 5.8 mph - N/A   Mostly Cloudy
5:35 PM 56.5 °F - 41.7 °F 58% 30.31 in 10.0 mi ESE 4.6 mph - N/A   Scattered Clouds
5:55 PM 56.1 °F - 42.3 °F 60% 30.32 in 10.0 mi SE 6.9 mph - N/A   Mostly Cloudy
6:15 PM 55.6 °F - 42.8 °F 62% 30.31 in 10.0 mi SE 5.8 mph - N/A   Overcast
6:35 PM 54.5 °F - 42.8 °F 65% 30.31 in 10.0 mi ESE 3.5 mph - N/A   Overcast
6:55 PM 53.6 °F - 42.4 °F 66% 30.30 in 10.0 mi ESE 4.6 mph - N/A   Mostly Cloudy
7:15 PM 53.1 °F - 42.4 °F 67% 30.30 in 10.0 mi ESE 6.9 mph - N/A   Mostly Cloudy
7:35 PM 52.3 °F - 42.4 °F 69% 30.30 in 10.0 mi ESE 5.8 mph - N/A   Mostly Cloudy
7:55 PM 51.3 °F - 42.4 °F 72% 30.30 in 10.0 mi ESE 4.6 mph - N/A   Scattered Clouds
8:15 PM 50.4 °F - 43.0 °F 76% 30.30 in 10.0 mi ESE 3.5 mph - N/A   Clear
8:35 PM 50.2 °F - 43.3 °F 77% 30.30 in 10.0 mi ESE 6.9 mph - N/A   Clear
8:55 PM 49.8 °F - 43.7 °F 79% 30.29 in 10.0 mi ESE 5.8 mph - N/A   Clear
9:15 PM 49.5 °F - 43.7 °F 81% 30.28 in 10.0 mi Calm Calm - N/A   Scattered Clouds
9:35 PM 50.0 °F - 44.6 °F 82% 30.29 in 10.0 mi East 4.6 mph - N/A   Scattered Clouds
9:55 PM 50.0 °F - 45.1 °F 83% 30.28 in 10.0 mi Calm Calm - N/A   Scattered Clouds
10:15 PM 50.0 °F - 45.1 °F 83% 30.30 in 10.0 mi Calm Calm - N/A   Mostly Cloudy
10:35 PM 50.0 °F - 45.1 °F 83% 30.31 in 10.0 mi Calm Calm - N/A   Overcast
10:55 PM 49.6 °F - 45.1 °F 84% 30.31 in 10.0 mi Calm Calm - N/A   Overcast
11:15 PM 49.6 °F - 45.5 °F 86% 30.31 in 10.0 mi Calm Calm - N/A   Overcast
11:35 PM 49.5 °F - 45.5 °F 86% 30.31 in 10.0 mi Calm Calm - N/A   Overcast
11:55 PM 49.6 °F - 45.7 °F 86% 30.31 in 10.0 mi East 3.5 mph - N/A Rain Light Rain